Location: Chevoux
(46.3801°N, 4.9476°E)
Time: 17:32:51
(UTC+00:00)

Okean O Rocket - Pass Details

Date: 28 January 2021
Orbit: 622 x 645 km, 98.2° (Epoch: 01 March)

Event Time Altitude Azimuth Distance (km) Brightness Sun altitude
Rises 17:48:40 0° 185° (S) 2,935 5.3 -12.2°
Reaches altitude 10° 17:50:59 10° 193° (SSW) 2,028 4.6 -12.5°
Maximum altitude 17:55:06 38° 262° (W) 979 3.3 -13.2°
Drops below altitude 10° 17:59:14 10° 331° (NNW) 2,031 4.4 -13.9°
Sets 18:01:35 0° 339° (NNW) 2,940 5.2 -14.3°
